Find Skipper

NORAD ID: 23752 Int'l Des: 1995-072 Owner: BMDO Country: US operational
LEOCIRCULARRETROGRADESSO

Current View

Loading 3D Globe...

About Skipper

Description loading...

Upcoming Passes

Passes for default location (London). Set your location on the main map for personalized predictions.

Altitude History

Loading altitude history...

Two-Line Element Set

1 23752U 95072B 26150.11588420 .00000031 00000-0 31390-4 0 9999
2 23752 98.7355 221.8516 0005669 166.3706 193.7628 14.26154906582760
Epoch: May 30, 2026 • Age: 11 hours

Current Status

Altitude 804.8 km
Velocity 7.46 km/s
Sub-Earth Point 31.98°N, 43.92°W
Launch Date Dec 28, 1995
Age 30.4 years
Type other

Technical Details

Classification Payload
Mass 250.00 kg
Dry Mass 220.00 kg
Total Mass 250.00 kg
Length 1.00 m
Diameter 1.50 m
Span 1.50 m
Shape Cyl
Manufacturer NPOL/CNSA
Bus Type Skipper
Phase Status In Orbit
Owner/State BMDO/US

Most Searched